Regional Weather Roundup
Issued by NWS

Home | Current Version | Previous Version | Text Only | Print | Product List | Glossary Off
Versions: 1 2 3 4 5 6 7 8 9 10 11 12 13 14 15 16 17 18 19 20 21 22 23 24 25 26 27 28 29 30 31 32 33 34 35 36 37 38 39 40 41 42 43 44 45 46 47 48 49 50

000
ASUS45 KBOU 210307
RWRCO

WEATHER ROUNDUP FOR COLORADO
NATIONAL WEATHER SERVICE DENVER/BOULDER CO
800 PM MST SAT DEC 20 2014

NOTE: "FAIR" INDICATES FEW OR NO CLOUDS BELOW 12000 FEET WITH NO
SIGNIFICANT WEATHER AND/OR OBSTRUCTIONS TO VISIBILITY.

COZ001>005-013-030-031-210400-
...NORTHWEST COLORADO...

CITY           SKY/WX    TMP DP  RH WIND       PRES   REMARKS
CRAIG          CLOUDY    27  25  92 CALM      30.06S
HAYDEN         CLOUDY    27  25  93 NE3       30.04S
MEEKER         LGT SNOW  30  28  92 NE3       30.07S FOG
MOUNT WERNER   NOT AVBL
STEAMBOAT SPGS CLOUDY    25  24  96 CALM      30.04R
WALDEN         MOCLDY    23  19  86 SW12      29.96F WCI  12
$$

COZ006>008-011-210400-
...WEST CENTRAL VALLEYS...

CITY           SKY/WX    TMP DP  RH WIND       PRES   REMARKS
GRAND JUNCTION CLOUDY    33  31  92 CALM      30.12R
MONTROSE       CLOUDY    33  25  72 NE3       30.12R
EAGLE          LGT SNOW  28  27  93 CALM      30.09F FOG
RIFLE          LGT SNOW  30  28  92 CALM      30.11S FOG
DELTA          CLOUDY    37  28  71 NE5       30.13R
NUCLA          CLOUDY    34  28  80 E3        30.14S
$$

COZ017>023-064>068-210400-
...SOUTHWEST COLORADO...

CITY           SKY/WX    TMP DP  RH WIND       PRES   REMARKS
DURANGO        CLOUDY    30  26  85 E5        30.10S WCI  25
CORTEZ         MOCLDY    32  28  85 CALM      30.12S
PAGOSA SPRINGS CLOUDY    28  26  92 CALM      30.10S
TELLURIDE      CLOUDY    29  23  79 E3        30.10S
WOLF CREEK PAS SNOW      16  16 100 MISG      30.07F VSB 1/4
$$

COZ009-010-012-014-032>034-037-058>063-210400-
...CENTRAL COLORADO...

CITY           SKY/WX    TMP DP  RH WIND       PRES   REMARKS
ASPEN          LGT SNOW  25  23  92 N5        30.05S FOG     WCI  19
BUENA VISTA    MOCLDY    32  16  52 NW7       30.00F WCI  26
COPPER MTN     LGT SNOW  19  14  79 W6        30.00F WCI  11
BERTHOUD PASS  CLOUDY    10   5  79 MISG      29.94F
COTTONWOOD PAS MOCLDY    30  18  59 NW5       30.00F WCI  25
GUNNISON       CLOUDY    21  16  79 N5        30.12R WCI  15
KREMMLING      CLOUDY    21  18  86 CALM      30.04F
LEADVILLE      CLOUDY    21  16  81 NE5       29.99F WCI  15
SALIDA         MOCLDY    36  19  51 SW13      30.07S
SUNLIGHT       LGT SNOW  23  21  93 CALM      30.06S
WILKERSON PASS MOCLDY    19  12  73 W7        30.03S WCI  10
$$

COZ069>075-210400-
...SAN LUIS VALLEY/SANGRE DE CRISTO MOUNTAINS...

CITY           SKY/WX    TMP DP  RH WIND       PRES   REMARKS
ALAMOSA        CLOUDY    19  15  84 E5        30.03F WCI  12
LA VETA PASS   CLOUDY    21  12  68 S12G20    29.99F WCI   9
SAGUACHE       CLOUDY    32  19  59 W7        30.03S WCI  26
$$

COZ035-036-038>040-210400-
...NORTHERN COLORADO FRONT RANGE...

CITY           SKY/WX    TMP DP  RH WIND       PRES   REMARKS
DENVER INTL AP CLOUDY    39  23  52 SW5       29.93S
DMNS CITY PARK   N/A     40  22  50 E3        29.93F
AURORA         MOCLDY    37  24  59 SW6       29.95R
FRONT RANGE AP NOT AVBL
ERIE MUNI ARPT   N/A     33  23  67 CALM      29.94S
BOULDER MUN AP CLOUDY    37  21  52 CALM      29.93F
CENTENNIAL     CLOUDY    36  24  62 S7        29.94R
BROOMFIELD     CLOUDY    41  18  38 SW5       29.94F
FORT COLLINS   CLOUDY    37  18  44 E5        29.95F
LONGMONT       CLOUDY    35  23  62 N5        29.96S WCI  31
$$

COZ041-046-047-076>085-087-088-210400-
...PIKES PEAK/PALMER DIVIDE AND SOUTHERN FOOTHILLS...

CITY           SKY/WX    TMP DP  RH WIND       PRES   REMARKS
COLO. SPRINGS  CLOUDY    35  21  56 NW7       29.97R WCI  29
A. F. ACADEMY  CLOUDY    31  19  59 NW8       29.96R WCI  24
ELLICOTT       NOT AVBL
FALCON         CLOUDY    32  21  63 NW5       29.97R WCI  27
FORT CARSON    CLOUDY    37  19  47 SW6       29.95R
LIMON          MOCLDY    26  20  77 CALM      29.93F
MONUMENT HILL  CLOUDY    30  23  74 SW8       29.95R WCI  23
TRINIDAD       MOCLDY    35  17  47 W10       29.93F WCI  27
$$

COZ042>045-048>051-090-091-210400-
...NORTHEAST COLORADO...

CITY           SKY/WX    TMP DP  RH WIND       PRES   REMARKS
GREELEY ARPT   CLOUDY    32  16  51 NE8       29.94F WCI  25
AKRON          MOCLDY    33  22  63 SE5       29.93F WCI  29
BURLINGTON     MOCLDY    36  29  75 S9        29.93F
WRAY           PTCLDY    33  27  77 N3        29.94F
STERLING       MOCLDY    27  23  86 CALM      29.94F
HOLYOKE        PTCLDY    34  28  80 W7        29.94F WCI  28
FORT MORGAN    MOCLDY    33  19  55 CALM      29.95R
$$

COZ086-089-092>099-210400-
...SOUTHEAST COLORADO...

CITY           SKY/WX    TMP DP  RH WIND       PRES   REMARKS
PUEBLO         CLOUDY    36  22  56 NE8       29.93S
LA JUNTA       PTCLDY    31  26  82 NE8       29.93F WCI  23
LAMAR          CLEAR     27  23  85 NE3       29.93F
SPRINGFIELD      N/A     28  24  85 S7        29.95F WCI  21
$$


USA.gov is the U.S. government's official web portal to all federal, state and local government web resources and services.